TimeCDT,TemperatureF,Dew PointF,Humidity,Sea Level PressureIn,VisibilityMPH,Wind Direction,Wind SpeedMPH,Gust SpeedMPH,PrecipitationIn,Events,Conditions,WindDirDegrees,DateUTC
12:53 AM,48.0,43.0,83,30.12,10.0,Calm,Calm,-,N/A,,Clear,0,2013-06-04 05:53:00
1:53 AM,48.0,42.1,80,30.11,10.0,Calm,Calm,-,N/A,,Clear,0,2013-06-04 06:53:00
2:53 AM,45.0,41.0,86,30.12,10.0,Calm,Calm,-,N/A,,Clear,0,2013-06-04 07:53:00
3:53 AM,45.0,41.0,86,30.12,10.0,ENE,4.6,-,N/A,,Clear,60,2013-06-04 08:53:00
4:53 AM,45.0,41.0,86,30.15,10.0,Calm,Calm,-,N/A,,Clear,0,2013-06-04 09:53:00
5:53 AM,46.9,42.1,83,30.17,10.0,Calm,Calm,-,N/A,,Clear,0,2013-06-04 10:53:00
6:53 AM,52.0,46.0,80,30.16,10.0,ENE,4.6,-,N/A,,Clear,70,2013-06-04 11:53:00
7:53 AM,57.9,45.0,62,30.17,10.0,East,8.1,-,N/A,,Clear,80,2013-06-04 12:53:00
8:53 AM,62.1,46.9,58,30.17,10.0,ESE,8.1,-,N/A,,Clear,120,2013-06-04 13:53:00
9:53 AM,66.0,46.9,50,30.17,10.0,ESE,8.1,-,N/A,,Clear,110,2013-06-04 14:53:00
10:53 AM,69.1,45.0,42,30.17,10.0,SE,8.1,-,N/A,,Clear,140,2013-06-04 15:53:00
11:53 AM,71.1,44.1,38,30.16,10.0,East,9.2,-,N/A,,Clear,100,2013-06-04 16:53:00
12:53 PM,73.0,44.1,35,30.15,10.0,SE,8.1,-,N/A,,Clear,140,2013-06-04 17:53:00
1:53 PM,75.0,45.0,34,30.14,10.0,ESE,6.9,-,N/A,,Clear,120,2013-06-04 18:53:00
2:53 PM,73.0,45.0,37,30.13,10.0,Calm,Calm,-,N/A,,Clear,0,2013-06-04 19:53:00
3:53 PM,75.0,46.0,36,30.12,10.0,ESE,10.4,-,N/A,,Clear,110,2013-06-04 20:53:00
4:53 PM,72.0,45.0,38,30.11,10.0,ESE,8.1,-,N/A,,Clear,120,2013-06-04 21:53:00
5:53 PM,69.1,50.0,51,30.12,10.0,North,6.9,-,N/A,,Clear,10,2013-06-04 22:53:00
6:53 PM,66.9,48.0,51,30.12,10.0,Variable,6.9,-,N/A,,Clear,0,2013-06-04 23:53:00
7:53 PM,64.0,48.0,56,30.11,10.0,Calm,Calm,-,N/A,,Clear,0,2013-06-05 00:53:00
8:53 PM,60.1,48.0,64,30.11,10.0,NE,4.6,-,N/A,,Clear,40,2013-06-05 01:53:00
9:53 PM,57.0,48.0,72,30.11,10.0,Calm,Calm,-,N/A,,Clear,0,2013-06-05 02:53:00
10:53 PM,55.9,48.0,75,30.10,10.0,Calm,Calm,-,N/A,,Clear,0,2013-06-05 03:53:00
11:53 PM,55.9,48.9,77,30.10,10.0,Calm,Calm,-,N/A,,Clear,0,2013-06-05 04:53:00